Powrót do katalogu

COSMOS 494

AktywnyMilitariaLEO
NORAD 6059·PAYLOAD·🇷🇺 Russia

Wystrzelony Jun 23, 1972 z Plesetsk Cosmodrome

Loading…

Następne Przeloty (najbliższe 24 godziny)

TLE

ŚwieżeSource: Space-Track

Epoka: Sep 14, 2026, 11:39 UTC

1 06059U 72043A   26257.48606383  .00000057  00000-0  28269-4 0  9999
2 06059  74.0530 277.9691 0009750  26.4828 333.6821 14.36552551836968

Śledź COSMOS 494 w czasie rzeczywistym z AllMySat

Download on the App Store